Back to catalog

EUTE KA SAT 9A

KA SAT

AliveCommunicationsGEO
NORAD 37258·PAYLOAD·🇪🇺 EU

Launched Dec 26, 2010 from Baikonur Cosmodrome

Loading…

TLE

FreshSource: Space-Track

Epoch: Sep 14, 2026, 07:00 UTC

1 37258U 10069A   26257.29180439  .00000053  00000-0  00000-0 0  9997
2 37258   0.0739 352.4829 0005406 178.1302 296.7216  1.00271766 44906

Track EUTE KA SAT 9A in real time with AllMySat

Download on the App Store